Regional Weather Roundup
Issued by NWS

Home | Current Version | Previous Version | Text Only | Print | Product List | Glossary Off
Versions: 1 2 3 4 5 6 7 8 9 10 11 12 13 14 15 16 17 18 19 20 21 22 23 24 25 26 27 28 29 30 31 32 33 34 35 36 37 38 39 40 41 42 43 44 45 46 47 48 49 50

525
ASUS43 KLOT 172312
RWRIL

ILLINOIS REGIONAL WEATHER ROUNDUP
NATIONAL WEATHER SERVICE CHICAGO/ROMEOVILLE IL
500 PM CST TUE JAN 17 2017

NOTE: "FAIR" INDICATES FEW OR NO CLOUDS BELOW 12,000 FEET WITH NO
SIGNIFICANT WEATHER AND/OR OBSTRUCTIONS TO VISIBILITY.

* THESE STATIONS ARE NOT UNDER NWS QUALITY CONTROL. THEY ALSO MAY NOT
  REPORT WEATHER SUCH AS PRECIPITATION OR FOG.

ILZ001-002-007-009-015-016-024-180000-
NORTHWEST ILLINOIS

CITY           SKY/WX    TMP DP  RH WIND       PRES   REMARKS
MOLINE         CLOUDY    36  33  89 W13G20    30.01R WCI  27
STERLING*      CLOUDY    36  34  93 W13       29.98R FOG     WCI  27
SAVANNA*       CLOUDY    35  33  90 W8G17     29.98R WCI  29
$$

ILZ003-004-008-010-011-017-018-180000-
NORTH CENTRAL ILLINOIS

CITY           SKY/WX    TMP DP  RH WIND       PRES   REMARKS
ROCKFORD       DRIZZLE   35  34  96 W6        29.97R FOG     WCI  30
FREEPORT*      CLOUDY    33  33  99 W6        29.97R FOG     WCI  28
ROCHELLE*      CLOUDY    34  34  99 W9        29.96R FOG     WCI  27
DE KALB*       CLOUDY    35  34  98 W12       29.95R FOG     WCI  26
$$

ILZ005-006-012>014-019>023-180000-
NORTHEAST ILLINOIS

CITY           SKY/WX    TMP DP  RH WIND       PRES   REMARKS
CHICAGO-OHARE  CLOUDY    36  35  96 W9        29.92R FOG     WCI  29
CHICAGO-MIDWAY CLOUDY    35  34  96 W14       29.94R WCI  26
AURORA         CLOUDY    36  34  92 W13       29.95R FOG     WCI  27
LANSING*       CLOUDY    36  36 100 W15G21    29.96R FOG     WCI  27
JOLIET*        CLOUDY    37  37  99 W8        29.97R FOG     WCI  31
WAUKEGAN       CLOUDY    36  35  96 VRB6      29.91R FOG     WCI  31
DUPAGE AIRPORT CLOUDY    36  33  89 W13       29.93R FOG     WCI  27
KANKAKEE*      CLOUDY    37  36  96 W15       29.99R WCI  27
WHEELING       CLOUDY    36  34  92 W8        29.94R WCI  30
MORRIS*        CLOUDY    36  35  96 W9        29.96R FOG     WCI  29
ROMEOVILLE*    CLOUDY    35  35 100 W13       29.96R FOG     WCI  26
NORTHERLY ISL    N/A     37  34  89 SW7         N/A  WCI  32
$$

LMZ740>746-180000-
SOUTHERN LAKE MICHIGAN

STATION/POSITION SKY/WX   TEMP    WIND        PRES    VSBY  WAVE
                          AIR SEA DIR/SP/G                  HT/PER
                          (F)     (DEG/KT/KT) (MB)    (MI)  (FT/S)
HARRISON CRIB              39     250/ 15/ 16   N/A
BURNHAM HARBOR             37     270/  7/ 13   N/A
CALUMET HARBOR             37     220/ 10/ 14 1013.4R
BURNS HARBOR               37     240/ 12/ 17 1014.6R
$$

ILZ025>027-034>036-040-047-049-050-058-095>099-180000-
WEST-CENTRAL ILLINOIS

CITY           SKY/WX    TMP DP  RH WIND       PRES   REMARKS
QUINCY         CLOUDY    37  35  92 W8        30.08R WCI  31
GALESBURG*     CLOUDY    35  35  99 W10G17    30.02R FOG     WCI  27
MACOMB*        CLOUDY    36  36 100 W13       30.07R WCI  27
JACKSONVILLE*  CLOUDY    38  35  88 W10G18    30.08R WCI  32
PITTSFIELD*    CLOUDY    39  36  89 W9G17     30.09R WCI  33
$$

ILZ028>032-037-038-041>044-048-051>054-059>061-180000-
CENTRAL ILLINOIS

CITY           SKY/WX    TMP DP  RH WIND       PRES   REMARKS
PONTIAC        CLOUDY    37  37 100 W10       30.00R FOG     WCI  29
BLOOMINGTON    CLOUDY    36  34  92 W12       30.02R WCI  28
DECATUR        CLOUDY    39  37  92 W13G21    30.04R WCI  31
PEORIA         CLOUDY    36  35  96 W9        30.03R WCI  29
LACON*         CLOUDY    35  35  98 W6G17     30.01R FOG     WCI  30
LINCOLN*       CLOUDY    39  36  91 W9        30.04R WCI  32
SPRINGFIELD    CLOUDY    40  36  86 W14       30.06R
TAYLORVILLE    CLOUDY    39  37  93 W10       30.07R FOG     WCI  32
$$

ILZ033-039-045-046-055>057-062-063-180000-
EAST-CENTRAL ILLINOIS

CITY           SKY/WX    TMP DP  RH WIND       PRES   REMARKS
CHAMPAIGN      CLOUDY    39  37  92 W16       30.02R FOG     WCI  30
RANTOUL*       CLOUDY    40  38  95 W16       30.01R
MATTOON        CLOUDY    41  31  67 W18       30.03R
PARIS*         CLOUDY    42  41  98 W9        30.02S FOG
$$

ILZ079-100>102-180000-
SOUTHWEST ILLINOIS

CITY           SKY/WX    TMP DP  RH WIND       PRES   REMARKS
ALTON          CLOUDY    41  37  87 W12       30.09R
BELLEVILLE     MOCLDY    45  39  81 W13       30.09R
CAHOKIA*       CLOUDY    44  36  73 W13       30.10R
SPARTA*        CLOUDY    44  38  81 W6        30.11R
$$

ILZ064>066-069>071-074>076-080>082-084>086-088>090-092>094-180000-
SOUTH-CENTRAL ILLINOIS

CITY           SKY/WX    TMP DP  RH WIND       PRES   REMARKS
CARBONDALE     CLOUDY    44  40  85 W5        30.12R
CAIRO*         CLOUDY    44  40  85 W9        30.14R
EFFINGHAM*     CLOUDY    44  43  96 SW10G16   30.07R
MARION         CLOUDY    45  43  93 W8        30.12R
MT. VERNON     CLOUDY    44  39  82 SW8       30.10R
CENTRALIA*     CLOUDY    45  41  86 SW8       30.08R
SALEM*         CLOUDY    46  39  78 W10       30.07R
METROPOLIS*    CLOUDY    45  40  83 CALM      30.13R
$$

ILZ067-068-072-073-078-083-087-091-180000-
SOUTHEAST ILLINOIS

CITY           SKY/WX    TMP DP  RH WIND       PRES   REMARKS
LAWRENCEVILLE  CLOUDY    45  43  93 W9        30.07R
FLORA*         CLOUDY    46  40  81 W7        30.08R
FAIRFIELD*     CLOUDY    44  39  83 W6        30.08R
HARRISBURG*    CLOUDY    44  40  87 W8        30.12R
ROBINSON*      CLOUDY    44  41  91 W9        30.05S
CARMI*         CLOUDY    44  40  88 W9        30.10R
$$

ABBREVIATIONS USED IN REMARKS
   TC - TEMPERATURE IN CELSIUS
  WCI - WIND CHILL INDEX
   HX - HEAT INDEX
  VSB - VISIBILITY
$$





USA.gov is the U.S. government's official web portal to all federal, state and local government web resources and services.